[[{"header":{"parameterUnit":"m.s-1","parameterCategory":1,"la1":30.2991,"la2":30.254,"lo1":-89.0895,"lo2":-89.0444,"dy":0.0017,"dx":0.0017,"nx":28,"ny":28,"refTime":"2024-08-26T21:00:00:Z","depth":0,"parameterNumber":2,"parameterNumberName":"U-component_of_WINDS"},"data":[0,0,0,0,0,0,0,0,0,0,0,0,0,0,0,0,0,0,0,0,0,0,0,0,0,0,0,0,0,0,0,0,0,0,0,0,0,0,0,0,0,0,0,0,0,0,0,0,0,0,0,0,0,0,0,0,0,0,1.1477,1.1477,0,1.1485,1.1485,1.1485,1.146,1.1459,1.1459,1.1458,1.1466,1.1467,1.1468,0,0,0,0,0,0,0,0,0,0,0,0,0,1.1439,1.144,1.1477,1.1477,1.1477,1.1485,1.1485,1.1485,1.146,1.1459,1.1458,1.1458,1.1466,1.1467,1.1468,0,0,0,0,0,0,0,0,0,0,0,0,0,1.1452,1.144,1.1477,1.1466,1.1465,1.1485,1.1485,1.1485,1.1461,1.1459,1.1458,1.1457,1.1465,1.1467,1.1468,1.15,0,0,1.1473,1.1473,0,0,0,0,0,0,0,0,1.1451,1.1453,1.1467,1.1466,1.1465,1.147,1.1475,1.149,1.1461,1.1462,1.1458,1.1457,1.1469,1.147,1.1474,1.15,1.1501,1.1473,1.1473,1.1474,1.1474,0,0,0,0,0,0,0,1.145,1.1453,1.148,1.1467,1.1466,1.146,1.146,1.1478,1.1472,1.1462,1.146,1.1461,1.1468,1.1472,1.1474,1.1501,1.1473,1.1474,1.1475,1.1475,1.1552,1.1554,0,0,0,0,0,0,1.1451,1.1452,1.148,1.148,1.1455,1.1461,1.1462,1.147,1.1471,1.1471,1.1462,1.146,1.1471,1.1472,1.1474,1.151,1.1474,1.1475,1.1476,1.1551,1.1553,1.1554,0,0,0,0,0,0,1.145,1.1454,1.148,1.1466,1.1469,1.1463,1.1472,1.1471,1.1475,1.1472,1.1471,1.1468,1.147,1.1472,1.1493,1.151,1.1476,1.1477,1.155,1.1552,1.1553,1.1583,0,0,0,0,0,0,1.1449,1.1454,1.1466,1.1466,1.1469,1.1499,1.1473,1.1472,1.1478,1.1475,1.1477,1.1476,1.1469,1.1491,1.1495,1.1511,1.1478,1.1548,1.1551,1.1553,1.1581,1.1586,1.159,0,0,0,0,0,1.1448,1.1474,1.1467,1.147,1.1485,1.15,1.1502,1.1493,1.1479,1.1491,1.1489,1.1476,1.1508,1.1494,1.1497,1.1515,1.1547,1.155,1.1553,1.1578,1.1585,1.159,0,0,0,0,0,0,1.1476,1.1474,1.1466,1.1493,1.1497,1.1496,1.1511,1.15,1.1509,1.1506,1.1495,1.1495,1.1518,1.1519,1.1503,1.1545,1.1525,1.1529,1.1543,1.1549,1.1554,1.1553,1.148,0,0,0,0,0,1.1485,1.1498,1.1496,1.152,1.1522,1.1516,1.1523,1.1516,1.1519,1.1521,1.152,1.1524,1.1535,1.1542,1.1552,1.1581,1.158,1.1594,1.1599,1.1603,1.1606,1.162,1.1626,1.1563,1.1563,1.1563,0,0,1.1505,1.1505,1.1514,1.1526,1.1528,1.1541,1.1518,1.1533,1.1543,1.1523,1.1543,1.1543,1.1547,1.1571,1.1582,1.1572,1.1623,1.1606,1.161,1.161,1.1623,1.1629,1.1634,1.1565,1.1564,1.1564,0,0,1.1546,1.1549,1.1568,1.1571,1.1574,1.157,1.1575,1.1576,1.1574,1.1594,1.158,1.1591,1.161,1.1613,1.1617,1.1659,1.1647,1.1662,1.1687,1.1701,1.1705,1.171,1.1724,1.1729,1.1665,1.1666,1.1666,0,1.157,1.1589,1.158,1.1595,1.16,1.1584,1.1603,1.1606,1.1613,1.1617,1.1605,1.1628,1.163,1.1654,1.1664,1.1669,1.1673,1.1662,1.1706,1.171,1.1714,1.1727,1.1732,1.1667,1.1667,1.1667,1.1667,0,1.1617,1.1631,1.1646,1.1653,1.166,1.1677,1.167,1.1678,1.167,1.1667,1.1687,1.1688,1.1697,1.1703,1.1696,1.1726,1.172,1.1708,1.1687,1.1722,1.1734,1.1739,1.167,1.1669,1.1669,1.1668,0,0,1.1677,1.1677,1.1683,1.1685,1.1688,1.1698,1.1714,1.1723,1.173,1.1735,1.1748,1.1764,1.1752,1.1757,1.175,1.1762,1.1794,1.1748,1.1748,1.1756,1.1827,1.1835,1.1841,1.1787,1.1788,1.1788,1.1826,0,1.1717,1.1745,1.1736,1.1765,1.1776,1.176,1.1775,1.1777,1.1775,1.1784,1.1781,1.1792,1.1777,1.1779,1.1791,1.1788,1.1808,1.1785,1.1798,1.1798,1.1796,1.1848,1.1857,1.1892,1.1831,1.1831,1.1832,0,1.1767,1.1774,1.1803,1.1803,1.1807,1.182,1.1827,1.1837,1.1839,1.1836,1.1841,1.1831,1.1847,1.1828,1.1848,1.1833,1.1838,1.1837,1.1838,1.1838,1.1817,1.1848,1.1903,1.1908,1.184,1.1839,1.1838,0,1.1806,1.1823,1.1842,1.1844,1.1845,1.1854,1.1854,1.1856,1.1861,1.1867,1.1871,1.1879,1.1883,1.1889,1.1881,1.1868,1.1903,1.1883,1.1901,1.1901,1.1908,1.1907,1.1964,1.1913,1.1913,1.1913,1.1913,0,1.1851,1.187,1.1859,1.1871,1.189,1.188,1.19,1.1899,1.19,1.1911,1.1898,1.1908,1.1898,1.1908,1.1902,1.1919,1.1922,1.1919,1.1917,1.192,1.192,1.1922,1.1919,1.1914,1.1914,1.1914,1.1913,0,1.1898,1.1892,1.1911,1.191,1.191,1.1924,1.1922,1.1933,1.1929,1.1943,1.1946,1.194,1.195,1.1943,1.1954,1.195,1.1973,1.1968,1.1972,1.197,1.1987,1.1985,1.2046,1.2053,1.1999,1.1999,1.2,0,1.1926,1.194,1.1939,1.1946,1.1947,1.1957,1.1962,1.1953,1.1959,1.1963,1.1972,1.1982,1.1988,1.2005,1.2002,1.201,1.2004,1.2025,1.2006,1.2007,1.2003,1.2002,1.2003,1.2029,1.203,1.203,1.2031,0,1.1977,1.1973,1.1982,1.1988,1.1995,1.2,1.2004,1.201,1.2,1.2007,1.2018,1.2023,1.2033,1.2042,1.2048,1.2049,1.2038,1.2037,1.2041,1.2043,1.2044,1.2042,1.1981,1.2035,1.2035,1.2034,1.2034,1.2034,1.2015,1.2026,1.2027,1.2036,1.2038,1.2041,1.2051,1.2048,1.2056,1.2064,1.2058,1.207,1.2071,1.2078,1.208,1.2089,1.208,1.2087,1.2088,1.209,1.2091,1.2044,1.209,1.209,1.209,1.209,1.209,0,1.2064,1.2064,1.2072,1.2078,1.2085,1.2074,1.2078,1.2084,1.2094,1.2097,1.2103,1.2115,1.2123,1.212,1.2128,1.2135,1.213,1.2137,1.2136,1.2136,1.2099,1.2094,1.2141,1.2141,1.2141,1.2141,1.2141,1.2141,1.2091,1.2108,1.2104,1.2121,1.2121,1.2132,1.2135,1.2138,1.2139,1.2152,1.2159,1.2157,1.2157,1.2164,1.2171,1.217,1.2173,1.2182,1.2179,1.2144,1.2139,1.2134,1.2129,1.2183,1.2183,1.2215,1.2215,1.2215]},{"header":{"parameterUnit":"m.s-1","parameterCategory":1,"la1":30.2991,"la2":30.254,"lo1":-89.0895,"lo2":-89.0444,"dy":0.0017,"dx":0.0017,"nx":28,"ny":28,"refTime":"2024-08-26T21:00:00:Z","depth":0,"parameterNumber":3,"parameterNumberName":"V-component_of_WINDS"},"data":[0,0,0,0,0,0,0,0,0,0,0,0,0,0,0,0,0,0,0,0,0,0,0,0,0,0,0,0,0,0,0,0,0,0,0,0,0,0,0,0,0,0,0,0,0,0,0,0,0,0,0,0,0,0,0,0,0,0,-1.1858,-1.1859,0,-1.1908,-1.1908,-1.1909,-1.1938,-1.1939,-1.1939,-1.1939,-1.1989,-1.199,-1.1991,0,0,0,0,0,0,0,0,0,0,0,0,0,-1.1789,-1.179,-1.1858,-1.1859,-1.186,-1.1908,-1.1908,-1.1909,-1.1938,-1.1939,-1.1939,-1.1939,-1.1988,-1.199,-1.1991,0,0,0,0,0,0,0,0,0,0,0,0,0,-1.1827,-1.1791,-1.1858,-1.188,-1.1882,-1.1908,-1.1908,-1.1909,-1.1938,-1.1939,-1.1939,-1.1939,-1.1988,-1.1989,-1.1991,-1.1998,0,0,-1.1997,-1.1998,0,0,0,0,0,0,0,0,-1.1825,-1.1829,-1.1876,-1.1879,-1.1881,-1.1917,-1.1902,-1.1939,-1.1938,-1.1917,-1.1939,-1.1939,-1.1965,-1.1968,-1.1977,-1.2001,-1.2003,-1.1997,-1.1998,-1.1999,-1.1999,0,0,0,0,0,0,0,-1.1822,-1.1828,-1.1878,-1.1877,-1.188,-1.1887,-1.1893,-1.1909,-1.1939,-1.1919,-1.1921,-1.1927,-1.1966,-1.1975,-1.1979,-1.2003,-1.1997,-1.1998,-1.2,-1.2,-1.2036,-1.2036,0,0,0,0,0,0,-1.1816,-1.1825,-1.1876,-1.1879,-1.1853,-1.1888,-1.1895,-1.1905,-1.1939,-1.1944,-1.1927,-1.1928,-1.1972,-1.1976,-1.198,-1.1991,-1.1999,-1.2,-1.2001,-1.2036,-1.2036,-1.2036,0,0,0,0,0,0,-1.1814,-1.182,-1.1874,-1.1853,-1.186,-1.1889,-1.1901,-1.1906,-1.1916,-1.1945,-1.195,-1.1931,-1.1972,-1.1978,-1.1994,-1.1993,-1.2001,-1.2003,-1.2036,-1.2036,-1.2036,-1.2013,0,0,0,0,0,0,-1.1812,-1.182,-1.1822,-1.1853,-1.1861,-1.1887,-1.1901,-1.1907,-1.1919,-1.1921,-1.195,-1.1955,-1.1973,-1.1991,-1.1996,-1.1996,-1.2004,-1.2037,-1.2036,-1.2036,-1.2014,-1.2012,-1.201,0,0,0,0,0,-1.181,-1.1814,-1.1822,-1.1828,-1.1866,-1.1887,-1.1892,-1.1913,-1.1919,-1.1922,-1.1941,-1.1954,-1.1993,-1.1992,-1.1998,-1.1999,-1.2037,-1.2036,-1.2036,-1.2015,-1.2012,-1.201,0,0,0,0,0,0,-1.1782,-1.1818,-1.1828,-1.1842,-1.1861,-1.1892,-1.1896,-1.191,-1.1927,-1.1929,-1.1954,-1.196,-1.1974,-1.1988,-1.1987,-1.2008,-1.2016,-1.2017,-1.1998,-1.1996,-1.1994,-1.1991,-1.2006,0,0,0,0,0,-1.1777,-1.1792,-1.1822,-1.1831,-1.1841,-1.1867,-1.1877,-1.1892,-1.1912,-1.1921,-1.1941,-1.196,-1.1977,-1.1987,-1.2004,-1.2016,-1.2023,-1.202,-1.2018,-1.2016,-1.2017,-1.2025,-1.2024,-1.2035,-1.2035,-1.2035,0,0,-1.1768,-1.179,-1.1797,-1.1826,-1.1843,-1.1857,-1.1873,-1.1888,-1.1899,-1.1923,-1.1939,-1.1955,-1.1978,-1.1992,-1.2,-1.2005,-1.2015,-1.2016,-1.2014,-1.2016,-1.2024,-1.2023,-1.2022,-1.2035,-1.2035,-1.2035,0,0,-1.1758,-1.1776,-1.1786,-1.1803,-1.1828,-1.1845,-1.1848,-1.1877,-1.1888,-1.1905,-1.1924,-1.1937,-1.1965,-1.1982,-1.1994,-1.1992,-1.2005,-1.1996,-1.1987,-1.1995,-1.1994,-1.1993,-1.1993,-1.1992,-1.1997,-1.1997,-1.1997,0,-1.1743,-1.1766,-1.1789,-1.1803,-1.1815,-1.1839,-1.1849,-1.1864,-1.1893,-1.1901,-1.1907,-1.1943,-1.1961,-1.1979,-1.1979,-1.1988,-1.1992,-1.1993,-1.1992,-1.1992,-1.1991,-1.1991,-1.1991,-1.1995,-1.1996,-1.1996,-1.1996,0,-1.1747,-1.1762,-1.1767,-1.1795,-1.1809,-1.182,-1.1846,-1.1856,-1.187,-1.1887,-1.1905,-1.1927,-1.1949,-1.1955,-1.1968,-1.1976,-1.1978,-1.1987,-1.1996,-1.1989,-1.1989,-1.1989,-1.1994,-1.1994,-1.1995,-1.1995,0,0,-1.172,-1.1762,-1.1763,-1.1777,-1.1807,-1.1819,-1.1832,-1.1855,-1.1864,-1.1883,-1.1895,-1.1919,-1.1929,-1.1942,-1.1958,-1.1964,-1.1962,-1.1973,-1.1974,-1.197,-1.1972,-1.1965,-1.1964,-1.1971,-1.1971,-1.1971,-1.197,0,-1.1715,-1.1739,-1.1761,-1.1778,-1.1793,-1.1816,-1.1828,-1.1847,-1.1864,-1.1879,-1.1897,-1.1914,-1.1925,-1.1933,-1.1941,-1.196,-1.1963,-1.1961,-1.1982,-1.1983,-1.1976,-1.1965,-1.1957,-1.1955,-1.1971,-1.1971,-1.1971,0,-1.1711,-1.1731,-1.175,-1.1779,-1.1786,-1.1796,-1.1819,-1.1833,-1.1856,-1.1868,-1.1884,-1.19,-1.1916,-1.1924,-1.1945,-1.1944,-1.1954,-1.1965,-1.1966,-1.1968,-1.1976,-1.1967,-1.1954,-1.1954,-1.1971,-1.1971,-1.1971,0,-1.169,-1.1721,-1.1737,-1.1747,-1.1782,-1.1789,-1.1804,-1.1827,-1.184,-1.186,-1.1868,-1.1889,-1.1901,-1.1917,-1.1939,-1.1943,-1.1959,-1.1968,-1.1969,-1.1968,-1.1971,-1.197,-1.196,-1.1977,-1.1977,-1.1977,-1.1977,0,-1.1682,-1.1692,-1.1728,-1.1737,-1.175,-1.1775,-1.1787,-1.1804,-1.1825,-1.1838,-1.1859,-1.1871,-1.19,-1.1915,-1.1933,-1.1948,-1.1953,-1.1963,-1.1968,-1.1961,-1.196,-1.1968,-1.1969,-1.1977,-1.1977,-1.1977,-1.1977,0,-1.166,-1.1684,-1.1702,-1.1734,-1.1743,-1.1751,-1.1778,-1.1788,-1.1807,-1.1823,-1.1828,-1.1857,-1.1877,-1.19,-1.1927,-1.1939,-1.1953,-1.196,-1.1945,-1.1948,-1.1947,-1.1947,-1.1942,-1.1942,-1.1959,-1.1959,-1.1959,0,-1.1653,-1.1662,-1.1695,-1.1706,-1.172,-1.1737,-1.175,-1.1775,-1.1788,-1.1816,-1.1823,-1.1844,-1.1862,-1.1893,-1.1916,-1.1937,-1.1944,-1.1941,-1.1947,-1.1941,-1.1945,-1.1944,-1.1945,-1.1939,-1.1939,-1.1938,-1.1938,0,-1.1638,-1.165,-1.1668,-1.169,-1.1705,-1.1724,-1.1744,-1.1751,-1.1781,-1.1794,-1.1815,-1.1829,-1.1857,-1.1878,-1.1902,-1.1918,-1.1933,-1.1936,-1.1938,-1.1931,-1.1922,-1.1927,-1.1941,-1.1936,-1.1936,-1.1936,-1.1937,-1.1937,-1.1624,-1.1633,-1.1658,-1.1678,-1.1695,-1.1713,-1.1725,-1.1745,-1.1763,-1.1788,-1.1802,-1.1822,-1.1846,-1.1881,-1.1896,-1.1912,-1.1918,-1.1919,-1.192,-1.192,-1.1918,-1.192,-1.1917,-1.1917,-1.1917,-1.1917,-1.1917,0,-1.161,-1.1628,-1.1646,-1.1673,-1.1688,-1.1702,-1.1725,-1.1737,-1.1754,-1.1776,-1.1794,-1.1818,-1.1839,-1.1864,-1.1887,-1.1895,-1.1903,-1.19,-1.19,-1.1903,-1.1912,-1.1908,-1.1894,-1.1894,-1.1894,-1.1894,-1.1894,-1.1894,-1.1605,-1.1621,-1.1636,-1.1662,-1.1679,-1.17,-1.1712,-1.1729,-1.1746,-1.1772,-1.179,-1.1806,-1.183,-1.1854,-1.1874,-1.1881,-1.1888,-1.1884,-1.1893,-1.19,-1.1902,-1.1904,-1.1901,-1.1885,-1.1885,-1.1883,-1.1883,-1.1883]}]]